Location: Helsinki
(60.1699°N, 24.9384°E)
Time: 23:37:24
(UTC+02:00)

A-11 Canister half - Pass Details

Date: 02 November 2020
Orbit: 1516 x 1684 km, 47.2° (Epoch: 26 November)

Event Time Altitude Azimuth Distance (km) Brightness Sun altitude
Rises 20:46:19 0° 236° (SW) 4,933 12.0 -32.6°
Reaches altitude 10° 20:49:48 10° 228° (SW) 3,940 11.3 -32.9°
Enters shadow 20:56:18 33° 193° (SSW) 2,542 9.9 -33.6°
Maximum altitude 20:58:39 37° 167° (SSE) 2,393 - -33.9°
Drops below altitude 10° 21:07:20 10° 105° (ESE) 3,857 - -34.8°
Sets 21:10:42 0° 98° (E) 4,820 - -35.1°
